This demonstration page uses our WeatherBlox Daily Observations layout. Learn more.

41.55636, -103.73856

Hourly Observations for August 13, 2016

Temp ( °F °C ) Dew Point ( °F °C ) Humidity (%) Winds ( mph kmh ) Pressure ( in mb ) Visibility ( mi km ) Precip ( " mm )
12:53 am 00:53 Clear 58 14.4 52 11.1 81 81 E 3 6 30.04 1017 10 16.0934 0 0
1:53 am 01:53 Clear 58 14.4 51 10.6 78 78 ENE 6 9 30.04 1017 10 16.0934 0 0
2:53 am 02:53 Clear 57 13.9 52 11.1 83 83 ENE 5 7 30.03 1017 10 16.0934 0 0
3:53 am 03:53 Clear 55 12.8 50 10 83 83 N 7 11 30.03 1017 10 16.0934 0 0
4:53 am 04:53 Clear 55 12.8 49 9.4 80 80 N 5 7 30.05 1018 10 16.0934 0 0
5:53 am 05:53 Clear 55 12.8 49 9.4 80 80 NNE 9 15 30.06 1018 10 16.0934 0 0
6:53 am 06:53 Sunny 55 12.8 50 10 83 83 Calm 30.08 1019 10 16.0934 0 0
7:53 am 07:53 Sunny 62 16.7 52 11.1 70 70 VRB 3 6 30.09 1019 10 16.0934 0 0
8:53 am 08:53 Sunny 67 19.4 54 12.2 63 63 E 5 7 30.09 1019 10 16.0934 0 0
9:53 am 09:53 Sunny 73 22.8 52 11.1 48 48 ESE 13 20 30.07 1018 10 16.0934 0 0
10:53 am 10:53 Sunny 77 25 51 10.6 40 40 ENE 8 13 30.08 1019 10 16.0934 0 0
11:53 am 11:53 Sunny 79 26.1 52 11.1 39 39 ENE 8 13 30.06 1018 10 16.0934 0 0
12:53 pm 12:53 Sunny 81 27.2 52 11.1 37 37 VRB 6 9 30.05 1018 10 16.0934 0 0
1:53 pm 13:53 Sunny 81 27.2 51 10.6 35 35 VRB 5 7 30.04 1017 10 16.0934 0 0
2:53 pm 14:53 Sunny 84 28.9 51 10.6 32 32 ESE 10 17 30.02 1017 10 16.0934 0 0
3:53 pm 15:53 Sunny 83 28.3 54 12.2 37 37 ENE 9 15 30.01 1016 10 16.0934 0 0
4:53 pm 16:53 Sunny 83 28.3 52 11.1 34 34 ENE 9 15 30.01 1016 10 16.0934 0 0
5:53 pm 17:53 Sunny 82 27.8 53 11.7 37 37 ENE 9 15 30.01 1016 10 16.0934 0 0
6:53 pm 18:53 Sunny 77 25 57 13.9 50 50 NE 7 11 30.02 1017 10 16.0934 0 0
7:53 pm 19:53 Sunny 69 20.6 58 14.4 68 68 ENE 7 11 30.04 1017 10 16.0934 0 0
8:53 pm 20:53 Clear 67 19.4 55 12.8 66 66 ENE 9 15 30.04 1017 10 16.0934 0 0
9:53 pm 21:53 Clear 66 18.9 54 12.2 65 65 ENE 9 15 30.06 1018 10 16.0934 0 0
10:53 pm 22:53 Clear 63 17.2 55 12.8 76 76 ESE 5 7 30.06 1018 10 16.0934 0 0
11:53 pm 23:53 Clear 62 16.7 55 12.8 78 78 ESE 5 7 30.06 1018 10 16.0934 0 0

Powered by AerisWeather